UAL1291 KLAX-LHBP

Flight info

Callsign UAL1291
Flight time N/A
Altitude 37000
Route ORCKA5 LAS Q70 BLIPP Q842 WINEN DCT EHK DCT PUC DCT CKW DCT HEITY DCT RAP DCT TUZCO DCT UNIBY DCT SMERF DCT YILUV DCT WIMJY DCT LESUG DCT YGQ DCT YMO DCT MEMSO DCT JOVIE DCT CUDDY/M086F370 DCT 57N050W 58N040W 58N030W 58N020W DCT GOMUP/N0492F370 DCT GINGA DCT BRUCE DCT FYNER DCT CLYDE DCT TLA N97 NATEB M981 GODOS DCT TIVUN DCT ESAMA DCT OSBIT DCT BARSU DCT EKSOS DCT LULAR DCT RUDAP DCT BUDEX DCT TOVKA DCT ANEXA
Aircraft B744/H-SDE3FGHIM1M2RWXY/LB1

Departure

Time 2026-04-25 14:23
Airport Los Angeles International Airport (KLAX)

Arrival

Time N/A
Airport Budapest Liszt Ferenc International Airport (LHBP)
Time Latitude Longitude Altitude Speed Heading
2026-04-25 14:23 33.92701 -118.49202 1806 ft 213 kts 201°
2026-04-25 14:23 33.91226 -118.49346 1914 ft 222 kts 169°
2026-04-25 14:23 33.89842 -118.48481 2014 ft 231 kts 138°
2026-04-25 14:24 33.89003 -118.46826 2151 ft 240 kts 107°
2026-04-25 14:24 33.88973 -118.44838 2380 ft 245 kts 77°
2026-04-25 14:24 33.89797 -118.43031 2659 ft 248 kts 47°
2026-04-25 14:24 33.91203 -118.41914 2993 ft 249 kts 24°
2026-04-25 14:25 33.92898 -118.41272 3357 ft 251 kts 15°
2026-04-25 14:25 33.94533 -118.40630 3661 ft 254 kts 25°
2026-04-25 14:25 33.95906 -118.39280 4020 ft 253 kts 49°
2026-04-25 14:25 33.96233 -118.38748 4163 ft 252 kts 54°
2026-04-25 14:26 33.97701 -118.35615 4741 ft 256 kts 58°
2026-04-25 14:26 33.98655 -118.33777 5033 ft 260 kts 54°
2026-04-25 14:26 33.99665 -118.31970 5324 ft 263 kts 53°
2026-04-25 14:26 34.00711 -118.30177 5613 ft 266 kts 52°
2026-04-25 14:27 34.01790 -118.28333 5896 ft 270 kts 52°
2026-04-25 14:27 34.02855 -118.26458 6177 ft 274 kts 53°
2026-04-25 14:27 34.03935 -118.24546 6452 ft 278 kts 53°
2026-04-25 14:27 34.04537 -118.23480 6602 ft 280 kts 53°
2026-04-25 14:28 34.05792 -118.21257 6932 ft 283 kts 53°
2026-04-25 14:28 34.06933 -118.19235 7285 ft 283 kts 53°
2026-04-25 14:28 34.08043 -118.17269 7607 ft 284 kts 53°
2026-04-25 14:28 34.09155 -118.15298 7920 ft 286 kts 53°
2026-04-25 14:29 34.10261 -118.13340 8195 ft 289 kts 53°
2026-04-25 14:29 34.11408 -118.11285 8480 ft 301 kts 53°
2026-04-25 14:29 34.12616 -118.09185 8775 ft 307 kts 53°
2026-04-25 14:29 34.13849 -118.07012 9023 ft 315 kts 53°
2026-04-25 14:30 34.15076 -118.04821 9193 ft 329 kts 54°
2026-04-25 14:30 34.17701 -118.00165 9950 ft 342 kts 53°
2026-04-25 14:30 34.19054 -117.97784 10354 ft 346 kts 53°
2026-04-25 14:31 34.19964 -117.96174 10632 ft 348 kts 53°
2026-04-25 14:31 34.21781 -117.92942 11298 ft 351 kts 54°
2026-04-25 14:31 34.22715 -117.91276 11639 ft 353 kts 54°
2026-04-25 14:31 34.24536 -117.88022 12299 ft 357 kts 54°
2026-04-25 14:32 34.25482 -117.86328 12641 ft 358 kts 54°
2026-04-25 14:32 34.26872 -117.83840 13131 ft 362 kts 54°
2026-04-25 14:32 34.28780 -117.80421 13430 ft 377 kts 54°
2026-04-25 14:32 34.29769 -117.78647 13819 ft 377 kts 54°
2026-04-25 14:33 34.31240 -117.76010 14349 ft 380 kts 54°
2026-04-25 14:33 34.32737 -117.73328 14854 ft 382 kts 54°
2026-04-25 14:33 34.34221 -117.70669 15314 ft 387 kts 54°
2026-04-25 14:33 34.35765 -117.67912 15409 ft 401 kts 53°
2026-04-25 14:34 34.37402 -117.65145 15504 ft 416 kts 52°
2026-04-25 14:34 34.39163 -117.62231 15597 ft 431 kts 52°
2026-04-25 14:34 34.40952 -117.59256 15695 ft 445 kts 52°
2026-04-25 14:34 34.42782 -117.56196 15885 ft 457 kts 52°
2026-04-25 14:35 34.44673 -117.53023 16209 ft 465 kts 52°
2026-04-25 14:35 34.46580 -117.49815 16614 ft 471 kts 52°
2026-04-25 14:35 34.48479 -117.46615 17067 ft 475 kts 52°
2026-04-25 14:35 34.50413 -117.43352 17553 ft 479 kts 52°
2026-04-25 14:36 34.52370 -117.40048 18041 ft 482 kts 52°
2026-04-25 14:36 34.54318 -117.36753 18513 ft 485 kts 52°
2026-04-25 14:36 34.56321 -117.33396 18986 ft 489 kts 52°
2026-04-25 14:36 34.58329 -117.30041 19443 ft 492 kts 52°
2026-04-25 14:37 34.60330 -117.26680 19895 ft 495 kts 52°
2026-04-25 14:37 34.62342 -117.23285 20344 ft 498 kts 52°
2026-04-25 14:37 34.64359 -117.19876 20784 ft 501 kts 52°
2026-04-25 14:37 34.66411 -117.16399 21219 ft 504 kts 52°
2026-04-25 14:38 34.68465 -117.12916 21648 ft 507 kts 52°
2026-04-25 14:38 34.70512 -117.09440 22066 ft 510 kts 53°
2026-04-25 14:38 34.72582 -117.05922 22479 ft 513 kts 53°
2026-04-25 14:38 34.74672 -117.02397 22880 ft 516 kts 52°
2026-04-25 14:39 34.76765 -116.98856 23262 ft 519 kts 53°
2026-04-25 14:39 34.78847 -116.95305 23641 ft 522 kts 53°
2026-04-25 14:39 34.80968 -116.91677 24009 ft 524 kts 53°
2026-04-25 14:39 34.83105 -116.88014 24370 ft 527 kts 53°
2026-04-25 14:40 34.85222 -116.84380 24711 ft 529 kts 53°
2026-04-25 14:40 34.87350 -116.80727 25035 ft 532 kts 53°
2026-04-25 14:40 34.89505 -116.77027 25398 ft 533 kts 53°
2026-04-25 14:40 34.91661 -116.73393 25911 ft 530 kts 51°
2026-04-25 14:41 34.93988 -116.69975 26359 ft 527 kts 47°
2026-04-25 14:41 34.96499 -116.66620 26726 ft 527 kts 45°
2026-04-25 14:41 34.99016 -116.63382 27119 ft 526 kts 44°
2026-04-25 14:41 35.01493 -116.60172 27487 ft 525 kts 45°
2026-04-25 14:42 35.03976 -116.56924 27841 ft 524 kts 45°
2026-04-25 14:42 35.05662 -116.54705 28072 ft 524 kts 45°
2026-04-25 14:42 35.08948 -116.50363 28502 ft 523 kts 45°
2026-04-25 14:42 35.11412 -116.47100 28810 ft 523 kts 45°
2026-04-25 14:43 35.13884 -116.43820 29105 ft 522 kts 45°
2026-04-25 14:43 35.16288 -116.40641 29381 ft 521 kts 45°
2026-04-25 14:43 35.18804 -116.37341 29646 ft 521 kts 45°
2026-04-25 14:43 35.21244 -116.34120 29888 ft 520 kts 45°
2026-04-25 14:44 35.23676 -116.30897 30109 ft 520 kts 45°
2026-04-25 14:44 35.26141 -116.27623 30317 ft 520 kts 45°
2026-04-25 14:44 35.28583 -116.24374 30511 ft 519 kts 45°
2026-04-25 14:44 35.31027 -116.21119 30690 ft 519 kts 45°
2026-04-25 14:45 35.33464 -116.17869 30861 ft 518 kts 45°
2026-04-25 14:45 35.35907 -116.14606 31020 ft 518 kts 45°
2026-04-25 14:45 35.38361 -116.11326 31171 ft 518 kts 45°
2026-04-25 14:45 35.40785 -116.08084 31310 ft 518 kts 45°
2026-04-25 14:46 35.43220 -116.04853 31444 ft 517 kts 45°
2026-04-25 14:46 35.45675 -116.01577 31570 ft 517 kts 45°
2026-04-25 14:46 35.48038 -115.98407 31685 ft 517 kts 46°
2026-04-25 14:46 35.50501 -115.95092 31802 ft 517 kts 46°
2026-04-25 14:47 35.52907 -115.91848 31924 ft 516 kts 46°
2026-04-25 14:47 35.54514 -115.89680 31995 ft 516 kts 46°
2026-04-25 14:47 35.57750 -115.85311 32139 ft 516 kts 46°
2026-04-25 14:47 35.59950 -115.82339 32226 ft 515 kts 46°
2026-04-25 14:48 35.62331 -115.79126 32341 ft 515 kts 46°
2026-04-25 14:48 35.64733 -115.75857 32435 ft 515 kts 46°
2026-04-25 14:48 35.69494 -115.69307 32620 ft 514 kts 46°
2026-04-25 14:49 35.74283 -115.62702 32793 ft 514 kts 46°
2026-04-25 14:49 35.79042 -115.56128 32960 ft 514 kts 46°
2026-04-25 14:50 35.83784 -115.49567 33201 ft 511 kts 46°
2026-04-25 14:50 35.86134 -115.46314 33391 ft 508 kts 46°
2026-04-25 14:50 35.88506 -115.43094 33495 ft 508 kts 46°
2026-04-25 14:51 35.90860 -115.39873 33636 ft 507 kts 46°
2026-04-25 14:51 35.93232 -115.36592 33836 ft 505 kts 46°
2026-04-25 14:51 35.95538 -115.33387 34073 ft 503 kts 46°
2026-04-25 14:51 35.97870 -115.30138 34380 ft 498 kts 46°
2026-04-25 14:52 36.00134 -115.26982 34746 ft 493 kts 46°
2026-04-25 14:52 36.02420 -115.23792 34871 ft 493 kts 46°
2026-04-25 14:52 36.06208 -115.18507 34953 ft 495 kts 46°
2026-04-25 14:53 36.09403 -115.14424 35141 ft 492 kts 41°
2026-04-25 14:53 36.11917 -115.11631 35210 ft 492 kts 38°
2026-04-25 14:53 36.14522 -115.08883 35329 ft 491 kts 38°
2026-04-25 14:53 36.17146 -115.06110 35426 ft 491 kts 38°
2026-04-25 14:54 36.19732 -115.03383 35537 ft 490 kts 38°
2026-04-25 14:54 36.22328 -115.00607 35622 ft 490 kts 39°
2026-04-25 14:54 36.24894 -114.97839 35729 ft 490 kts 39°
2026-04-25 14:54 36.27434 -114.95090 35808 ft 490 kts 39°
2026-04-25 14:55 36.32570 -114.89516 35984 ft 490 kts 39°
2026-04-25 14:55 36.37683 -114.83960 36138 ft 490 kts 39°
2026-04-25 14:56 36.42833 -114.78357 36285 ft 490 kts 39°
2026-04-25 14:56 36.47916 -114.72825 36425 ft 489 kts 38°
2026-04-25 14:57 36.53073 -114.67220 36556 ft 489 kts 39°
2026-04-25 14:57 36.58154 -114.61648 36679 ft 490 kts 39°
2026-04-25 14:58 36.63295 -114.55995 36797 ft 490 kts 39°
2026-04-25 14:58 36.68341 -114.50440 36906 ft 490 kts 39°
2026-04-25 14:59 36.73715 -114.45242 36992 ft 488 kts 31°
2026-04-25 14:59 36.79511 -114.40693 36998 ft 491 kts 29°
2026-04-25 15:00 36.85083 -114.36387 36998 ft 495 kts 29°
2026-04-25 15:00 36.90939 -114.31799 36997 ft 498 kts 30°
2026-04-25 15:01 36.96810 -114.27171 36996 ft 498 kts 30°
2026-04-25 15:01 37.02625 -114.22598 36996 ft 497 kts 30°
2026-04-25 15:02 37.08469 -114.18007 36996 ft 497 kts 30°
2026-04-25 15:02 37.14297 -114.13402 36996 ft 497 kts 30°
2026-04-25 15:03 37.20169 -114.08748 36996 ft 497 kts 30°
2026-04-25 15:03 37.26001 -114.04114 36997 ft 498 kts 30°
2026-04-25 15:04 37.31829 -113.99475 36997 ft 497 kts 30°
2026-04-25 15:04 37.37692 -113.94799 36997 ft 497 kts 30°
2026-04-25 15:05 37.43536 -113.90129 36997 ft 498 kts 30°
2026-04-25 15:06 37.52253 -113.83147 36997 ft 498 kts 30°
2026-04-25 15:06 37.57975 -113.78552 36998 ft 497 kts 30°
2026-04-25 15:07 37.63877 -113.73805 36998 ft 497 kts 30°
2026-04-25 15:07 37.69699 -113.69139 36997 ft 498 kts 30°
2026-04-25 15:08 37.75551 -113.64416 36997 ft 496 kts 30°
2026-04-25 15:08 37.81329 -113.59730 36997 ft 496 kts 30°
2026-04-25 15:09 37.86866 -113.54489 37009 ft 499 kts 47°
2026-04-25 15:09 37.88811 -113.50865 36990 ft 503 kts 63°
2026-04-25 15:09 37.90245 -113.42247 36996 ft 507 kts 94°
2026-04-25 15:10 37.89649 -113.37927 37003 ft 506 kts 109°
2026-04-25 15:10 37.88356 -113.33758 36999 ft 507 kts 115°
2026-04-25 15:11 37.83764 -113.21707 36995 ft 505 kts 115°
2026-04-25 15:11 37.81627 -113.13323 36993 ft 507 kts 94°
2026-04-25 15:12 37.82781 -113.04638 37003 ft 506 kts 64°
2026-04-25 15:12 37.84467 -113.00704 36997 ft 505 kts 54°
2026-04-25 15:12 37.87355 -112.96033 36997 ft 503 kts 46°
2026-04-25 15:13 37.96469 -112.84711 36997 ft 500 kts 41°
2026-04-25 15:14 38.01476 -112.78582 36996 ft 500 kts 42°
2026-04-25 15:14 38.06478 -112.72445 36996 ft 500 kts 42°
2026-04-25 15:15 38.11475 -112.66289 36996 ft 500 kts 42°
2026-04-25 15:15 38.16432 -112.60137 36996 ft 500 kts 42°
2026-04-25 15:16 38.21413 -112.53931 36997 ft 500 kts 42°
2026-04-25 15:16 38.28835 -112.44653 36997 ft 500 kts 42°
2026-04-25 15:17 38.36280 -112.35316 36997 ft 500 kts 42°
2026-04-25 15:18 38.40395 -112.30142 36997 ft 500 kts 43°
2026-04-25 15:18 38.47837 -112.20764 36997 ft 500 kts 43°
2026-04-25 15:19 38.51954 -112.15564 36996 ft 500 kts 43°
2026-04-25 15:19 38.57738 -112.08243 36997 ft 500 kts 43°
2026-04-25 15:20 38.62684 -112.01967 36997 ft 499 kts 43°
2026-04-25 15:20 38.67610 -111.95705 36997 ft 499 kts 43°
2026-04-25 15:21 38.72504 -111.89472 36997 ft 499 kts 43°
2026-04-25 15:21 38.77400 -111.83222 36996 ft 499 kts 43°
2026-04-25 15:22 38.82312 -111.76939 36996 ft 499 kts 43°
2026-04-25 15:22 38.87222 -111.70646 36996 ft 499 kts 43°
2026-04-25 15:23 38.92164 -111.64298 36997 ft 499 kts 43°
2026-04-25 15:23 38.97022 -111.58046 36997 ft 499 kts 43°
2026-04-25 15:24 39.01928 -111.51718 36997 ft 499 kts 43°
2026-04-25 15:24 39.06016 -111.46435 36997 ft 499 kts 43°
2026-04-25 15:25 39.11732 -111.39034 36997 ft 499 kts 43°
2026-04-25 15:25 39.16609 -111.32705 36997 ft 499 kts 43°
2026-04-25 15:26 39.21486 -111.26362 36997 ft 499 kts 43°
2026-04-25 15:26 39.26367 -111.20001 36996 ft 499 kts 43°
2026-04-25 15:27 39.31267 -111.13601 36996 ft 499 kts 43°
2026-04-25 15:28 39.38540 -111.04090 36997 ft 499 kts 43°
2026-04-25 15:28 39.43465 -110.97663 36997 ft 499 kts 43°
2026-04-25 15:29 39.48300 -110.91287 36997 ft 499 kts 43°
2026-04-25 15:29 39.53180 -110.84832 36997 ft 499 kts 43°
2026-04-25 15:30 39.57859 -110.78637 36997 ft 499 kts 43°
2026-04-25 15:30 39.62652 -110.72196 36998 ft 499 kts 45°
2026-04-25 15:31 39.67314 -110.65601 36997 ft 500 kts 45°
2026-04-25 15:31 39.72032 -110.58916 36997 ft 500 kts 45°
2026-04-25 15:32 39.76754 -110.52225 36997 ft 500 kts 45°
2026-04-25 15:32 39.81437 -110.45581 36997 ft 500 kts 45°
2026-04-25 15:33 39.88505 -110.35638 36996 ft 498 kts 45°
2026-04-25 15:33 39.93200 -110.29010 36997 ft 498 kts 45°
2026-04-25 15:34 39.97861 -110.22395 36996 ft 498 kts 45°
2026-04-25 15:34 40.01771 -110.16829 36997 ft 498 kts 45°
2026-04-25 15:35 40.09585 -110.05669 36997 ft 498 kts 45°
2026-04-25 15:36 40.16563 -109.95666 36997 ft 498 kts 45°
2026-04-25 15:36 40.21225 -109.88964 36997 ft 498 kts 46°
2026-04-25 15:37 40.25892 -109.82240 36997 ft 498 kts 46°
2026-04-25 15:37 40.30524 -109.75552 36997 ft 498 kts 46°
2026-04-25 15:38 40.35195 -109.68791 36997 ft 498 kts 46°
2026-04-25 15:38 40.39865 -109.62019 36997 ft 498 kts 46°
2026-04-25 15:39 40.44501 -109.55280 36996 ft 498 kts 46°
2026-04-25 15:39 40.49143 -109.48517 36996 ft 498 kts 46°
2026-04-25 15:40 40.52212 -109.44038 36997 ft 498 kts 46°
2026-04-25 15:40 40.58375 -109.35023 36997 ft 498 kts 46°
2026-04-25 15:41 40.63033 -109.28191 36997 ft 498 kts 46°
2026-04-25 15:41 40.67631 -109.21433 36997 ft 498 kts 46°
2026-04-25 15:42 40.72286 -109.14575 36997 ft 498 kts 46°
2026-04-25 15:42 40.76894 -109.07772 36997 ft 498 kts 46°
2026-04-25 15:43 40.81508 -109.00943 36997 ft 498 kts 46°
2026-04-25 15:43 40.86127 -108.94092 36997 ft 498 kts 46°
2026-04-25 15:44 40.90722 -108.87262 36996 ft 498 kts 46°
2026-04-25 15:44 40.95302 -108.80436 36996 ft 498 kts 46°
2026-04-25 15:45 40.99894 -108.73580 36996 ft 498 kts 46°
2026-04-25 15:45 41.02944 -108.69015 36997 ft 498 kts 46°
2026-04-25 15:46 41.09062 -108.59842 36997 ft 497 kts 46°
2026-04-25 15:46 41.13660 -108.52927 36997 ft 497 kts 46°
2026-04-25 15:47 41.18221 -108.46053 36997 ft 497 kts 46°
2026-04-25 15:47 41.22772 -108.39178 36997 ft 497 kts 47°
2026-04-25 15:48 41.27333 -108.32273 36997 ft 497 kts 47°
2026-04-25 15:48 41.31901 -108.25342 36997 ft 497 kts 47°
2026-04-25 15:49 41.36412 -108.18480 36997 ft 497 kts 47°
2026-04-25 15:49 41.40976 -108.11521 36997 ft 497 kts 47°
2026-04-25 15:50 41.45520 -108.04578 36997 ft 497 kts 47°
2026-04-25 15:50 41.50081 -107.97592 36996 ft 497 kts 47°
2026-04-25 15:51 41.53088 -107.92977 36997 ft 497 kts 47°
2026-04-25 15:51 41.59170 -107.83688 36996 ft 497 kts 47°
2026-04-25 15:52 41.63679 -107.76719 36996 ft 497 kts 47°
2026-04-25 15:52 41.68176 -107.69741 36997 ft 497 kts 47°
2026-04-25 15:53 41.72695 -107.62718 36997 ft 497 kts 47°
2026-04-25 15:53 41.77172 -107.55648 36997 ft 497 kts 50°
2026-04-25 15:54 41.81363 -107.48286 36997 ft 498 kts 51°
2026-04-25 15:54 41.85543 -107.40861 36997 ft 498 kts 51°
2026-04-25 15:55 41.89708 -107.33503 36997 ft 498 kts 51°
2026-04-25 15:55 41.93914 -107.26074 36997 ft 498 kts 51°
2026-04-25 15:56 41.98132 -107.18666 36997 ft 498 kts 50°
2026-04-25 15:56 42.02339 -107.11326 36997 ft 498 kts 51°
2026-04-25 15:57 42.06572 -107.03870 36997 ft 498 kts 51°
2026-04-25 15:57 42.10745 -106.96482 36997 ft 498 kts 51°
2026-04-25 15:58 42.14931 -106.89050 36996 ft 498 kts 51°
2026-04-25 15:58 42.19128 -106.81577 36996 ft 497 kts 51°
2026-04-25 15:59 42.23278 -106.74168 36996 ft 496 kts 51°
2026-04-25 15:59 42.27424 -106.66749 36997 ft 496 kts 51°
2026-04-25 16:00 42.30078 -106.61990 36997 ft 497 kts 51°
2026-04-25 16:00 42.35594 -106.52075 36997 ft 497 kts 51°
2026-04-25 16:01 42.39760 -106.44564 36997 ft 497 kts 51°
2026-04-25 16:01 42.43903 -106.37077 36997 ft 497 kts 51°
2026-04-25 16:02 42.48018 -106.29621 36997 ft 497 kts 51°
2026-04-25 16:02 42.52195 -106.22113 36997 ft 497 kts 51°
2026-04-25 16:03 42.56294 -106.14637 36996 ft 497 kts 52°
2026-04-25 16:03 42.60405 -106.07101 36996 ft 497 kts 52°
2026-04-25 16:04 42.64487 -105.99605 36996 ft 497 kts 52°
2026-04-25 16:04 42.68571 -105.91977 36996 ft 497 kts 54°
2026-04-25 16:05 42.71699 -105.85334 36997 ft 498 kts 57°
2026-04-25 16:06 42.77168 -105.73310 36997 ft 498 kts 56°
2026-04-25 16:06 42.80829 -105.65312 36996 ft 498 kts 56°
2026-04-25 16:07 42.84475 -105.57343 36996 ft 498 kts 56°
2026-04-25 16:07 42.88164 -105.49382 36996 ft 498 kts 56°
2026-04-25 16:08 42.91883 -105.41365 36996 ft 498 kts 56°
2026-04-25 16:08 42.95563 -105.33359 36996 ft 498 kts 56°
2026-04-25 16:09 42.99214 -105.25372 36997 ft 498 kts 56°
2026-04-25 16:09 43.02869 -105.17350 36997 ft 498 kts 56°
2026-04-25 16:10 43.06550 -105.09244 36997 ft 498 kts 57°
2026-04-25 16:10 43.10203 -105.01176 36997 ft 498 kts 57°
2026-04-25 16:11 43.13805 -104.93199 36997 ft 498 kts 57°
2026-04-25 16:11 43.17445 -104.85118 36997 ft 498 kts 57°
2026-04-25 16:12 43.21085 -104.77013 36996 ft 497 kts 57°
2026-04-25 16:12 43.24677 -104.68993 36997 ft 496 kts 57°
2026-04-25 16:13 43.28309 -104.60861 36997 ft 496 kts 57°
2026-04-25 16:13 43.31895 -104.52810 36996 ft 497 kts 57°
2026-04-25 16:14 43.35497 -104.44701 36996 ft 496 kts 57°
2026-04-25 16:14 43.39095 -104.36578 36997 ft 496 kts 57°
2026-04-25 16:15 43.42659 -104.28509 36997 ft 496 kts 57°
2026-04-25 16:15 43.46238 -104.20384 36997 ft 496 kts 57°
2026-04-25 16:16 43.49826 -104.12217 36997 ft 496 kts 57°
2026-04-25 16:16 43.53376 -104.04112 36997 ft 496 kts 57°
2026-04-25 16:17 43.56952 -103.95925 36997 ft 497 kts 57°
2026-04-25 16:17 43.60482 -103.87822 36997 ft 497 kts 57°
2026-04-25 16:18 43.64011 -103.79695 36997 ft 497 kts 57°
2026-04-25 16:18 43.67582 -103.71451 36997 ft 497 kts 57°
2026-04-25 16:19 43.71125 -103.63249 36997 ft 497 kts 58°
2026-04-25 16:19 43.74693 -103.54963 36996 ft 497 kts 58°
2026-04-25 16:20 43.79960 -103.42690 36996 ft 497 kts 58°
2026-04-25 16:21 43.85264 -103.30388 36996 ft 497 kts 58°
2026-04-25 16:21 43.88765 -103.22136 36996 ft 497 kts 58°
2026-04-25 16:22 43.92232 -103.13929 36997 ft 497 kts 58°
2026-04-25 16:22 43.95724 -103.05651 36997 ft 497 kts 58°
2026-04-25 16:23 43.99184 -102.97270 36998 ft 497 kts 60°
2026-04-25 16:23 44.02331 -102.88814 36996 ft 497 kts 61°
2026-04-25 16:24 44.05504 -102.80246 36997 ft 497 kts 61°
2026-04-25 16:24 44.08685 -102.71688 36997 ft 497 kts 61°
2026-04-25 16:25 44.11852 -102.63162 36997 ft 497 kts 61°
2026-04-25 16:25 44.15034 -102.54688 36997 ft 495 kts 60°
2026-04-25 16:26 44.18249 -102.46180 36998 ft 495 kts 61°
2026-04-25 16:26 44.21430 -102.37658 36997 ft 496 kts 61°
2026-04-25 16:27 44.24603 -102.29104 36997 ft 495 kts 61°
2026-04-25 16:27 44.26702 -102.23424 36996 ft 495 kts 61°